Weather History for West Point, VA

Change the Weather History Date:

Saturday, May 4, 2013

  Actual Average (KRIC) Record (KRIC)
Temperature  
Mean Temperature 53 °F 63 °F  
Max Temperature 65 °F 75 °F 92 °F (1965)
Min Temperature 40 °F 51 °F 32 °F (1986)
Degree Days  
Heating Degree Days 12 4  
Month to date heating degree days 16  
Since 1 July heating degree days 3708  
Cooling Degree Days 0 2  
Month to date cooling degree days 8  
Year to date cooling degree days 50  
Growing Degree Days 3 (Base 50)    
Moisture  
Dew Point 47 °F    
Average Humidity 81    
Maximum Humidity 100    
Minimum Humidity 48    
Precipitation  
Precipitation 0.00 in 0.11 in 1.90 in (1978)
Month to date precipitation 0.44  
Year to date precipitation 13.55  
Snow  
Snow 0.00 in 0.00 in 0.00 in (2002)
Month to date snowfall 0.0  
Since 1 July snowfall 10.3  
Snow Depth -    
Sea Level Pressure  
Sea Level Pressure 30.24 in    
Wind  
Wind Speed 6 mph (NE)    
Max Wind Speed 18 mph    
Max Gust Speed 24 mph    
Visibility 10 miles    
Events      
T = Trace of Precipitation, MM = Missing Value Source: NWS Daily Summary

Daily Weather History Graph

Daily Weather History Graph

Search for Another Location

Airport:

Trip Planner

Search our weather history database for the weather conditions in past years. The results will help you decide how hot, cold, wet, or windy it might be!

Date:

Astronomy

May. 04, 2013 Rise Set
Actual Time 6:08 AM EDT 7:59 PM EDT
Civil Twilight 5:39 AM EDT 8:28 PM EDT
Nautical Twilight 5:05 AM EDT 9:02 PM EDT
Astronomical Twilight 4:28 AM EDT 9:39 PM EDT
Moon 2:59 AM EDT (5/4) 3:01 PM EDT (5/4)
Length of Visible Light 14h 48m
Length of Day
13h 51m
Waning Crescent, 27% of the Moon is Illuminated
May 4
Waning Crescent
May 9
New
May 18
First Quarter
May 25
Full
May 31
Last Quarter

Hourly Weather History & Observations

Time (EDT) Temp. Windchill Dew Point Humidity Pressure Visibility Wind Dir Wind Speed Gust Speed Precip Events Conditions
12:15 AM 46.8 °F - 45.5 °F 95% 30.32 in 10.0 mi NNE 3.5 mph - N/A   Clear
12:35 AM 46.6 °F - 45.3 °F 95% 30.31 in 10.0 mi NNE 4.6 mph - N/A   Clear
12:55 AM 46.4 °F - 45.1 °F 95% 30.30 in 10.0 mi Calm Calm - N/A   Clear
1:15 AM 45.9 °F 44.6 °F 45.1 °F 97% 30.29 in 10.0 mi NNE 3.5 mph - N/A   Clear
1:35 AM 45.9 °F 44.6 °F 45.1 °F 97% 30.28 in 10.0 mi NNE 3.5 mph - N/A   Clear
1:55 AM 45.9 °F 44.6 °F 45.3 °F 98% 30.27 in 10.0 mi North 3.5 mph - N/A   Clear
2:15 AM 45.9 °F 43.6 °F 45.5 °F 99% 30.27 in 10.0 mi North 4.6 mph - N/A   Clear
2:35 AM 45.7 °F 44.4 °F 45.5 °F 99% 30.26 in 10.0 mi North 3.5 mph - N/A   Clear
2:55 AM 45.5 °F 43.2 °F 45.5 °F 100% 30.25 in 10.0 mi North 4.6 mph - N/A   Clear
3:15 AM 45.7 °F 44.4 °F 45.7 °F 100% 30.25 in 10.0 mi North 3.5 mph - N/A   Clear
3:35 AM 44.8 °F - 44.8 °F 100% 30.25 in 10.0 mi Calm Calm - N/A   Clear
3:55 AM 45.0 °F - 45.0 °F 100% 30.26 in 10.0 mi Calm Calm - N/A   Mostly Cloudy
4:15 AM 46.4 °F 45.2 °F 46.4 °F 100% 30.26 in 10.0 mi North 3.5 mph - N/A   Overcast
4:35 AM 46.8 °F - 46.8 °F 100% 30.26 in 10.0 mi Calm Calm - N/A   Overcast
4:55 AM 47.3 °F - 47.3 °F 100% 30.26 in 10.0 mi NNW 3.5 mph - N/A   Overcast
5:15 AM 47.8 °F - 47.7 °F 99% 30.26 in 10.0 mi Calm Calm - N/A   Overcast
5:35 AM 48.2 °F - 48.0 °F 99% 30.26 in 10.0 mi North 3.5 mph - N/A   Overcast
5:55 AM 49.1 °F - 48.6 °F 98% 30.26 in 10.0 mi North 3.5 mph - N/A   Overcast
6:15 AM 49.3 °F - 49.1 °F 99% 30.26 in 10.0 mi NNE 4.6 mph - N/A   Overcast
6:35 AM 49.5 °F - 49.5 °F 100% 30.27 in 4.0 mi NNE 5.8 mph - N/A   Overcast
6:55 AM 49.6 °F - 49.6 °F 100% 30.28 in 5.0 mi NNE 5.8 mph - N/A   Overcast
7:15 AM 50.0 °F - 50.0 °F 100% 30.28 in 10.0 mi NNE 4.6 mph - N/A   Overcast
7:35 AM 50.5 °F - 49.3 °F 95% 30.27 in 10.0 mi NNE 6.9 mph - N/A   Overcast
7:55 AM 50.5 °F - 48.6 °F 93% 30.27 in 10.0 mi NNE 6.9 mph 16.1 mph N/A   Overcast
8:15 AM 50.9 °F - 48.2 °F 90% 30.28 in 10.0 mi NNE 8.1 mph - N/A   Overcast
8:35 AM 50.9 °F - 47.8 °F 89% 30.28 in 10.0 mi North 6.9 mph - N/A   Overcast
8:55 AM 51.4 °F - 48.2 °F 89% 30.27 in 10.0 mi NNE 5.8 mph - N/A   Overcast
9:15 AM 53.2 °F - 49.1 °F 86% 30.27 in 10.0 mi NNE 6.9 mph - N/A   Overcast
9:35 AM 53.6 °F - 48.7 °F 84% 30.27 in 10.0 mi NE 10.4 mph - N/A   Overcast
9:55 AM 55.2 °F - 49.5 °F 81% 30.27 in 10.0 mi NNE 9.2 mph - N/A   Overcast
10:15 AM 56.3 °F - 50.0 °F 79% 30.26 in 10.0 mi NE 10.4 mph - N/A   Overcast
10:35 AM 56.3 °F - 50.0 °F 79% 30.26 in 10.0 mi NNE 9.2 mph - N/A   Overcast
10:55 AM 57.6 °F - 50.5 °F 77% 30.26 in 10.0 mi NE 8.1 mph - N/A   Overcast
11:15 AM 60.8 °F - 52.5 °F 74% 30.26 in 10.0 mi ENE 11.5 mph - N/A   Overcast
11:35 AM 57.6 °F - 50.7 °F 78% 30.26 in 10.0 mi NNE 6.9 mph - N/A   Overcast
11:55 AM 57.9 °F - 51.1 °F 78% 30.26 in 10.0 mi NE 9.2 mph - N/A   Overcast
12:15 PM 58.3 °F - 51.8 °F 79% 30.25 in 10.0 mi ENE 9.2 mph - N/A   Overcast
12:35 PM 58.3 °F - 51.8 °F 79% 30.24 in 10.0 mi NNE 11.5 mph - N/A   Overcast
12:55 PM 60.1 °F - 52.2 °F 75% 30.24 in 10.0 mi ENE 9.2 mph - N/A   Overcast
1:15 PM 60.4 °F - 52.2 °F 74% 30.24 in 10.0 mi NE 6.9 mph - N/A   Overcast
1:35 PM 60.4 °F - 51.8 °F 73% 30.23 in 10.0 mi ENE 9.2 mph - N/A   Overcast
1:55 PM 62.1 °F - 51.8 °F 69% 30.23 in 10.0 mi ENE 12.7 mph 17.3 mph N/A   Overcast
2:15 PM 63.5 °F - 52.0 °F 66% 30.23 in 10.0 mi ENE 10.4 mph 20.7 mph N/A   Overcast
2:35 PM 64.4 °F - 51.3 °F 62% 30.22 in 10.0 mi ENE 15.0 mph 23.0 mph N/A   Mostly Cloudy
2:55 PM 64.4 °F - 50.7 °F 61% 30.21 in 10.0 mi East 16.1 mph 24.2 mph N/A   Scattered Clouds
3:15 PM 64.6 °F - 49.8 °F 59% 30.21 in 10.0 mi ENE 16.1 mph 24.2 mph N/A   Scattered Clouds
3:35 PM 65.3 °F - 50.4 °F 58% 30.20 in 10.0 mi ENE 13.8 mph 21.9 mph N/A   Scattered Clouds
3:55 PM 64.0 °F - 48.9 °F 58% 30.20 in 10.0 mi NE 13.8 mph 21.9 mph N/A   Scattered Clouds
4:15 PM 64.6 °F - 49.1 °F 57% 30.20 in 10.0 mi ENE 13.8 mph 23.0 mph N/A   Scattered Clouds
4:35 PM 64.9 °F - 49.3 °F 57% 30.20 in 10.0 mi ENE 10.4 mph 20.7 mph N/A   Scattered Clouds
4:55 PM 64.0 °F - 48.9 °F 58% 30.20 in 10.0 mi NE 12.7 mph 19.6 mph N/A   Scattered Clouds
5:15 PM 63.7 °F - 46.6 °F 54% 30.20 in 10.0 mi ENE 12.7 mph 21.9 mph N/A   Scattered Clouds
5:35 PM 63.5 °F - 43.7 °F 48% 30.20 in 10.0 mi East 18.4 mph 21.9 mph N/A   Clear
5:55 PM 62.8 °F - 44.1 °F 50% 30.20 in 10.0 mi ENE 15.0 mph - N/A   Clear
6:15 PM 61.7 °F - 45.5 °F 55% 30.20 in 10.0 mi East 11.5 mph 19.6 mph N/A   Clear
6:35 PM 61.0 °F - 45.5 °F 57% 30.20 in 10.0 mi East 13.8 mph - N/A   Clear
6:55 PM 59.9 °F - 45.3 °F 59% 30.20 in 10.0 mi ENE 12.7 mph - N/A   Clear
7:15 PM 58.3 °F - 45.5 °F 62% 30.20 in 10.0 mi ENE 12.7 mph 18.4 mph N/A   Clear
7:35 PM 57.0 °F - 45.5 °F 65% 30.20 in 10.0 mi ENE 10.4 mph 18.4 mph N/A   Clear
7:55 PM 55.0 °F - 46.0 °F 72% 30.21 in 10.0 mi ENE 6.9 mph - N/A   Clear
8:15 PM 54.5 °F - 42.3 °F 63% 30.21 in 10.0 mi ENE 10.4 mph 17.3 mph N/A   Clear
8:35 PM 53.1 °F - 42.4 °F 67% 30.21 in 10.0 mi ENE 5.8 mph - N/A   Clear
8:55 PM 51.6 °F - 43.0 °F 72% 30.21 in 10.0 mi ENE 5.8 mph - N/A   Clear
9:15 PM 50.9 °F - 43.0 °F 74% 30.21 in 10.0 mi ENE 4.6 mph - N/A   Clear
9:35 PM 50.0 °F - 43.0 °F 77% 30.22 in 10.0 mi Calm Calm - N/A   Clear
9:55 PM 47.7 °F - 43.2 °F 84% 30.23 in 10.0 mi Calm Calm - N/A   Clear
10:15 PM 46.8 °F - 43.7 °F 89% 30.23 in 10.0 mi Calm Calm - N/A   Clear
10:35 PM 44.8 °F - 43.2 °F 94% 30.22 in 10.0 mi Calm Calm - N/A   Clear
10:55 PM 44.6 °F - 43.0 °F 94% 30.22 in 10.0 mi Calm Calm - N/A   Clear
11:15 PM 42.1 °F - 40.8 °F 95% 30.21 in 10.0 mi Calm Calm - N/A   Clear
11:35 PM 41.4 °F - 40.6 °F 97% 30.21 in 10.0 mi Calm Calm - N/A   Clear
11:55 PM 40.1 °F - 39.4 °F 97% 30.21 in 10.0 mi Calm Calm - N/A   Clear